sat.trackr.live / text

‹ back to catalog

ONEWEB-0394

NORAD 50474 · 2021-132F

PAYLOAD ACTIVE UNKNOWN

§ Identity

Operator
Country
UK
Launch date
2021-12-27
Launch site
TYMSC
Launch vehicle
Mass (kg)
RCS (m²)

Purposes: comms

External: N2YO · Heavens-Above · Gunter

§ Orbital elements

Epoch: 2026-05-25T02:34:50.768256Z

Period
109.20 min
Inclination
87.9169°
Eccentricity
0.0002074
Mean motion
13.18687668 rev/d
Perigee alt
1,188.2 km
Apogee alt
1,191.3 km
Semi-major
7,567.9 km
B*
-8.9441e-5
RAAN
340.0346°
Arg perigee
89.4712°
Mean anomaly
270.6658°
Rev number
21,855

§ Raw data

ONEWEB-03941 50474U 21132F   26145.10753204 -.00000022  00000+0 -89441-4 0  99942 50474  87.9169 340.0346 0002074  89.4712 270.6658 13.18687668218555

JSON: /api/v1/satellites/50474 · /tle

For live sub-satellite position, see the globe view (requires WebGL).

§ Visibility from observer

Set your observer location to see the next 7 days of passes ≥ 10°. The values pass through the URL so the page stays shareable.

No JS? Fill the form by hand. The geolocation button needs JavaScript.